User: anonymous   Login
Location: Unspecified
(0.0000°N, 0.0000°E)
Time: 07:46:12
(UTC+00:00)
Language:

Jawsat - Orbit

View from above orbital plane
View from above orbital plane
View from above satellite
View from above satellite

Ground track
Ground track

The orbit data is extracted from the following two-line orbital elements,

1 26061U 00004A   21168.93803927  .00000079  00000-0  42503-4 0  9992
2 26061 100.2199 150.4839 0034144  30.9739 329.3448 14.41489228123828
Epoch (UTC): 17 June 2021 22:30:46
Eccentricity: 0.0034144
inclination: 100.2199°
perigee height: 729 km
apogee height: 778 km
right ascension of ascending node: 150.4839°
argument of perigee: 30.9739°
revolutions per day: 14.41489228
mean anomaly at epoch: 329.3448°
orbit number at epoch: 12382

The dashed part of the orbit path shows where the satellite is in the earth's shadow,  

DLR